2023/09/16 00:00:00,17.4,22.6
2023/09/16 00:10:00,17.4,22.5
2023/09/16 00:20:00,17.5,22.3
2023/09/16 00:30:00,17.7,22.5
2023/09/16 00:40:00,17.6,22.4
2023/09/16 00:50:00,17.7,22.2
2023/09/16 01:00:00,17.8,22.0
2023/09/16 01:10:00,17.7,22.0
2023/09/16 01:20:00,17.7,22.1
2023/09/16 01:30:00,17.8,22.1
2023/09/16 01:40:00,17.7,21.8
2023/09/16 01:50:00,18.0,22.2
2023/09/16 02:00:00,17.8,21.8
2023/09/16 02:10:00,17.9,22.2
2023/09/16 02:20:00,18.2,21.8
2023/09/16 02:30:00,18.1,21.7
2023/09/16 02:40:00,18.2,21.7
2023/09/16 02:50:00,18.3,21.5
2023/09/16 03:00:00,18.5,21.7
2023/09/16 03:10:00,18.6,21.8
2023/09/16 03:20:00,18.6,21.7
2023/09/16 03:30:00,19.0,21.6
2023/09/16 03:40:00,18.9,21.5
2023/09/16 03:50:00,18.8,21.5
2023/09/16 04:00:00,18.8,21.5
2023/09/16 04:10:00,19.1,21.7
2023/09/16 04:20:00,19.1,21.6
2023/09/16 04:30:00,19.0,21.5
2023/09/16 04:40:00,19.1,21.5
2023/09/16 04:50:00,19.1,21.5
2023/09/16 05:00:00,19.1,21.4
2023/09/16 05:10:00,19.1,21.4
2023/09/16 05:20:00,19.3,21.4
2023/09/16 05:30:00,19.3,21.4
2023/09/16 05:40:00,19.4,21.4
2023/09/16 05:50:00,19.4,21.3
2023/09/16 06:00:00,19.4,21.3
2023/09/16 06:10:00,19.4,21.4
2023/09/16 06:20:00,19.3,21.4
2023/09/16 06:30:00,19.4,21.5
2023/09/16 06:40:00,19.3,21.4
2023/09/16 06:50:00,19.4,21.5
2023/09/16 07:00:00,19.5,21.6
2023/09/16 07:10:00,19.5,21.7
2023/09/16 07:20:00,19.4,21.8
2023/09/16 07:30:00,19.6,22.4
2023/09/16 07:40:00,19.6,22.7
2023/09/16 07:50:00,19.8,23.3
2023/09/16 08:00:00,19.9,24.1
2023/09/16 08:10:00,19.8,24.3
2023/09/16 08:20:00,19.9,24.8
2023/09/16 08:30:00,20.2,25.3
2023/09/16 08:40:00,19.9,25.9
2023/09/16 08:50:00,20.1,26.2
2023/09/16 09:00:00,20.2,26.9
2023/09/16 09:10:00,20.3,27.7
2023/09/16 09:20:00,20.4,28.5
2023/09/16 09:30:00,20.7,29.2
2023/09/16 09:40:00,21.3,29.8
2023/09/16 09:50:00,21.4,30.6
2023/09/16 10:00:00,21.3,31.0
2023/09/16 10:10:00,21.3,31.5
2023/09/16 10:20:00,21.3,31.9
2023/09/16 10:30:00,21.3,32.0
2023/09/16 10:40:00,21.5,32.6
2023/09/16 10:50:00,21.3,32.6
2023/09/16 11:00:00,21.3,33.5
2023/09/16 11:10:00,21.6,32.8
2023/09/16 11:20:00,21.6,32.5
2023/09/16 11:30:00,21.6,33.9
2023/09/16 11:40:00,21.8,33.2
2023/09/16 11:50:00,22.2,32.6
2023/09/16 12:00:00,22.1,32.2
2023/09/16 12:10:00,21.5,33.5
2023/09/16 12:20:00,21.1,34.2
2023/09/16 12:30:00,21.5,33.7
2023/09/16 12:40:00,21.2,34.1
2023/09/16 12:50:00,22.0,34.4
2023/09/16 13:00:00,24.7,34.0
2023/09/16 13:10:00,22.9,34.3
2023/09/16 13:20:00,23.0,34.1
2023/09/16 13:30:00,23.0,33.7
2023/09/16 13:40:00,23.2,33.1
2023/09/16 13:50:00,22.1,32.7
2023/09/16 14:00:00,22.9,32.1
2023/09/16 14:10:00,22.4,31.4
2023/09/16 14:20:00,22.8,31.4
2023/09/16 14:30:00,22.7,31.3
2023/09/16 14:40:00,26.4,31.6
2023/09/16 14:50:00,24.6,31.0
2023/09/16 15:00:00,23.5,30.7
2023/09/16 15:10:00,23.5,30.3
2023/09/16 15:20:00,23.5,29.9
2023/09/16 15:30:00,23.4,29.7
2023/09/16 15:40:00,23.6,30.3
2023/09/16 15:50:00,23.7,30.3
2023/09/16 16:00:00,27.5,29.3
2023/09/16 16:10:00,23.6,29.7
2023/09/16 16:20:00,23.1,29.9
2023/09/16 16:30:00,23.1,29.4
2023/09/16 16:40:00,23.3,29.1
2023/09/16 16:50:00,23.4,28.6
2023/09/16 17:00:00,23.5,28.4
2023/09/16 17:10:00,23.6,27.9
2023/09/16 17:20:00,23.7,27.5
2023/09/16 17:30:00,23.6,27.4
2023/09/16 17:40:00,23.6,27.0
2023/09/16 17:50:00,23.5,26.8
2023/09/16 18:00:00,23.4,26.6
2023/09/16 18:10:00,23.3,26.4
2023/09/16 18:20:00,23.2,26.3
2023/09/16 18:30:00,23.1,26.1
2023/09/16 18:40:00,22.9,26.0
2023/09/16 18:50:00,22.8,25.6
2023/09/16 19:00:00,22.1,25.6
2023/09/16 19:10:00,21.5,25.5
2023/09/16 19:20:00,21.0,25.5
2023/09/16 19:30:00,20.8,25.4
2023/09/16 19:40:00,21.2,25.2
2023/09/16 19:50:00,23.2,25.4
2023/09/16 20:00:00,23.1,25.1
2023/09/16 20:10:00,21.7,25.0
2023/09/16 20:20:00,21.2,25.0
2023/09/16 20:30:00,21.7,24.7
2023/09/16 20:40:00,25.3,24.7
2023/09/16 20:50:00,26.4,24.5
2023/09/16 21:00:00,26.2,24.3
2023/09/16 21:10:00,25.9,24.0
2023/09/16 21:20:00,25.3,24.0
2023/09/16 21:30:00,23.1,24.2
2023/09/16 21:40:00,20.6,23.8
2023/09/16 21:50:00,20.5,23.6
2023/09/16 22:00:00,20.4,23.7
2023/09/16 22:10:00,20.4,23.6
2023/09/16 22:20:00,20.4,23.6
2023/09/16 22:30:00,20.4,23.3
2023/09/16 22:40:00,20.3,23.5
2023/09/16 22:50:00,20.3,23.0
2023/09/16 23:00:00,20.3,23.1
2023/09/16 23:10:00,20.3,23.0
2023/09/16 23:20:00,20.3,23.0
2023/09/16 23:30:00,20.2,22.9
2023/09/16 23:40:00,20.3,22.9
2023/09/16 23:50:00,20.3,22.8
